Location: Vancouver
(49.2827°N, 123.1207°W)
Time: 02:04:57
(UTC-07:00)

Envisat - Pass Details

Date: 31 May 2024
Orbit: 762 x 764 km, 98.3° (Epoch: 19 June)

Event Time Altitude Azimuth Distance (km) Brightness Sun altitude
Rises 02:51:27 0° 34° (NNE) 3,238 8.0 -15.2°
Reaches altitude 10° 02:56:26 10° 77° (ENE) 2,302 6.0 -14.9°
Maximum altitude 02:57:03 10° 84° (E) 2,287 5.9 -14.8°
Drops below altitude 10° 02:57:40 10° 91° (E) 2,300 5.8 -14.8°
Sets 03:02:36 0° 134° (SE) 3,217 6.1 -14.4°
